Home > Weather > Langley > Past weeks

Flag for Canada Past Weather in Langley, British Columbia, Canada — Yesterday and Last 2 Weeks

Now
89 °F

Hot.


Feels Like: 86 °F
Forecast: 58 / 84 °F
Wind: 3 mph from South

Location: P. Meadows Coastal Station

Current Time: Aug 26, 2016 at 4:35:21 PM

Latest Report: Aug 26, 2016 at 4:00 PM


Visibility: N/A

Pressure: 29.83 "Hg

Humidity: 25%

Dew Point: 50 °F

Location of LangleyLocation

Past Weather in Langley — Graph

°F

Langley Temperature Yesterday

Maximum temperature yesterday: 90 °F (at 4:00 PM)
Minimum temperature yesterday: 56 °F (at 6:00 AM)
Average temperature yesterday: 73 °F

High & Low Weather Summary for the Past Weeks

 TemperatureHumidityPressure
High93 °F (Aug 19, 4:00 PM)98% (Aug 24, 7:00 AM)30.27 "Hg (Aug 24, 7:00 AM)
Low51 °F (Aug 23, 3:00 AM)21% (Aug 19, 5:00 PM)29.77 "Hg (Aug 21, 3:00 AM)
Average70 °F64%30.03 "Hg
* Reported Aug 11 3:00 PM — Aug 26 3:00 PM, Langley, Weather by CustomWeather, © 2016

Note: Actual official high and low records may vary slightly from our data, if they occured in-between our weather recording intervals... More about our weather records

Advertising

Langley Weather History for the Previous 24 Hours

Scroll right to see more
 ConditionsComfort  
Time TempWeatherWind HumidityBarometerVisibility
3:00 PM
Fri, Aug 26
89 °FHot.1 mph29%29.85 "HgN/A
2:00 PM86 °FPleasantly warm.3 mph31%29.88 "HgN/A
1:00 PM85 °FPleasantly warm.1 mph36%29.90 "HgN/A
12:00 PM82 °FWarm.2 mph41%29.91 "HgN/A
11:00 AM78 °FWarm.1 mph46%29.93 "HgN/A
10:00 AM73 °FMild.1 mph56%29.94 "HgN/A
9:00 AM68 °FMild.1 mph71%29.95 "HgN/A
8:00 AM64 °FMild.2 mph80%29.96 "HgN/A
7:00 AM61 °FCool.No wind85%29.96 "HgN/A
6:00 AM60 °FCool.1 mph88%29.95 "HgN/A
5:00 AM60 °FCool.2 mph86%29.95 "HgN/A
4:00 AM61 °FCool.1 mph86%29.96 "HgN/A
3:00 AM60 °FCool.1 mph85%29.95 "HgN/A
2:00 AM62 °FCool.1 mph83%29.96 "HgN/A
1:00 AM64 °FMild.2 mph82%29.97 "HgN/A
12:00 AM66 °FMild.No wind72%29.97 "HgN/A
11:00 PM
Thu, Aug 25
67 °FMild.2 mph71%29.96 "HgN/A
10:00 PM73 °FMild.1 mph50%29.96 "HgN/A
9:00 PM76 °FMild.2 mph42%29.97 "HgN/A
8:00 PM81 °FPleasantly warm.2 mph34%29.96 "HgN/A
7:00 PM85 °FPleasantly warm.7 mph30%29.96 "HgN/A
6:00 PM87 °FPleasantly warm.8 mph28%29.98 "HgN/A
5:00 PM90 °FHot.9 mph27%30.00 "HgN/A
4:00 PM90 °FHot.8 mph30%30.01 "HgN/A
Weather by CustomWeather, © 2016

See weather overviewHow to use our weather pages